064  
ASUS43 KFSD 261810  
RWRFSD  
 
WEATHER ROUNDUP FOR SE SOUTH DAKOTA/SW MINNESOTA/NW IOWA  
NATIONAL WEATHER SERVICE SIOUX FALLS SD  
100 PM CDT THU APR 26 2018  
 
NOTE: "FAIR" INDICATES FEW OR NO CLOUDS BELOW 12,000 FEET WITH NO  
SIGNIFICANT WEATHER AND OR S TO VISIBILITY
.  
 
 
SDZ038>040-050-052>070-261900-  
SOUTHEAST SOUTH DAKOTA  
 
CITY SKY/WX TMP DP RH WIND PRES REMARKS
 
BROOKINGS SUNNY 54 31 41 N25G33 30.04R  
CHAMBERLAIN SUNNY 61 28 29 N17G26 30.14S  
6HR MIN TEMP: 46; 6HR MAX TEMP: 61;  
 
HURON SUNNY 59 29 31 N23G38 30.10S  
6HR MIN TEMP: 43; 6HR MAX TEMP: 59;  
 
MADISON FAIR 54 32 43 N29G36 30.06R  
MITCHELL SUNNY 60 31 33 N25G38 30.10R  
6HR MIN TEMP: 46; 6HR MAX TEMP: 60;  
 
SIOUX FALLS MOSUNNY 59 28 30 N25G37 30.03R  
6HR MIN TEMP: 44; 6HR MAX TEMP: 59;  
 
WINNER FAIR 62 26 25 N20G29 30.17R  
YANKTON SUNNY 59 32 36 N28G38 30.04R  

 
 
MNZ071-072-080-081-089-090-097-098-261900-  
SOUTHWEST MINNESOTA  
 
CITY SKY/WX TMP DP RH WIND PRES REMARKS
 
FAIRMONT PTSUNNY 54 44 69 NW15G25 29.92S  
JACKSON MOSUNNY 55 43 62 N18G26 29.94S  
LUVERNE SUNNY 55 28 35 N22G32 30.01R  
MARSHALL SUNNY 54 34 46 N31 29.98S  
6HR MIN TEMP: 46; 6HR MAX TEMP: 55;  
 
MONTEVIDEO SUNNY 57 32 38 N28G36 29.99S  
PIPESTONE SUNNY N/A N/A N/A N18G32 30.01R  
REDWOOD FALLS SUNNY 59 32 36 N16G30 29.95R  
TRACY SUNNY 55 40 57 N26G33 29.98R  
WINDOM SUNNY 57 36 44 N26G36 29.94R  
WORTHINGTON SUNNY 56 40 55 N23G35 29.97R  

 
 
IAZ001>003-012>014-020>022-031-032-NEZ013-014-SDZ071-261900-  
NORTHWEST IOWA  
 
CITY SKY/WX TMP DP RH WIND PRES REMARKS
 
CHEROKEE PTSUNNY 62 39 42 NW15G23 29.95S  
DENISON MOSUNNY 64 39 39 W16G24 29.95S  
ESTHERVILLE CLOUDY 55 44 66 N16 29.93R  
LE MARS SUNNY 61 39 44 N23G29 29.98R  
ORANGE CITY SUNNY 61 43 51 N17G29 29.98R  
SHELDON SUNNY 59 43 55 N25G35 29.96R  
SIOUX CITY MOSUNNY 63 39 41 N18G31 29.97R  
6HR MIN TEMP: 43; 6HR MAX TEMP: 64;  
 
SPENCER PTSUNNY 59 41 51 N18G31 29.95R  
6HR MIN TEMP: 38; 6HR MAX TEMP: 61;  
 
STORM LAKE CLOUDY 59 37 44 NW15G24 29.94R  

 
 
ABBREVIATIONS USED IN REMARKS  
TC - TEMPERATURE IN CELSIUS  
WCI - WIND CHILL INDEX  
HX - HEAT INDEX  
VSB - VISIBILITY  
 
 
 
CLICK HERE TO GO TO PREVIOUS BULLETINS.

The Nexlab SD Page
The Nexlab IA Page
The Nexlab MN Page
The Nexlab NE Page Main Text Page